Weather History for Savannah, GA

Change the Weather History Date:

Tuesday, October 11, 2011

  Actual Average Record
Temperature  
Mean Temperature 72 °F 69 °F  
Max Temperature 76 °F 80 °F 88 °F (1959)
Min Temperature 68 °F 59 °F 40 °F (2000)
Degree Days  
Heating Degree Days 0 1  
Month to date heating degree days 11 9  
Since 1 July heating degree days 11 11  
Cooling Degree Days 7 6  
Month to date cooling degree days 42 76  
Year to date cooling degree days 2757 2342  
Growing Degree Days 22 (Base 50)    
Moisture  
Dew Point 67 °F    
Average Humidity 86    
Maximum Humidity 97    
Minimum Humidity 74    
Precipitation  
Precipitation 0.03 in 0.13 in 4.43 in (1885)
Month to date precipitation 1.31 1.62  
Year to date precipitation 31.85 40.57  
Snow  
Snow 0.00 in 0.00 in 0.00 in (2002)
Month to date snowfall 0.0  
Since 1 July snowfall 0.0 0.0  
Snow Depth 0.00 in    
Sea Level Pressure  
Sea Level Pressure 29.84 in    
Wind  
Wind Speed 9 mph (NE)    
Max Wind Speed 18 mph    
Max Gust Speed 23 mph    
Visibility 9 miles    
Events Rain    
T = Trace of Precipitation, MM = Missing Value Source: NWS Daily Summary

Daily Weather History Graph

Daily Weather History Graph

Search for Another Location

Airport:

Trip Planner

Search our weather history database for the weather conditions in past years. The results will help you decide how hot, cold, wet, or windy it might be!

Date:

Astronomy

Oct. 11, 2011 Rise Set
Actual Time 7:25 AM EDT 6:57 PM EDT
Civil Twilight 7:00 AM EDT 7:21 PM EDT
Nautical Twilight 6:32 AM EDT 7:50 PM EDT
Astronomical Twilight 6:04 AM EDT 8:18 PM EDT
Moon 6:32 PM EDT (10/11) 6:59 AM EDT (10/11)
Length of Visible Light 12h 21m
Length of Day
11h 32m
Full, 100% of the Moon is Illuminated
Oct 11
Full
Oct 11
Full
Oct 19
Last Quarter
Oct 26
New
Nov 2
First Quarter

Hourly Weather History & Observations

Time (EDT) Temp. Dew Point Humidity Pressure Visibility Wind Dir Wind Speed Gust Speed Precip Events Conditions
12:40 AM 71.6 °F 68.0 °F 88% 29.85 in 9.0 mi ENE 15.0 mph 23.0 mph 0.00 in Rain Light Rain
12:53 AM 71.1 °F 68.0 °F 90% 29.85 in 6.0 mi ENE 15.0 mph 24.2 mph 0.00 in Rain Light Rain
1:53 AM 71.1 °F 68.0 °F 90% 29.83 in 10.0 mi ENE 15.0 mph 19.6 mph 0.01 in   Overcast
2:53 AM 71.1 °F 68.0 °F 90% 29.81 in 10.0 mi NE 11.5 mph - N/A   Overcast
3:53 AM 70.0 °F 68.0 °F 93% 29.81 in 10.0 mi NNE 10.4 mph - 0.00 in   Overcast
4:53 AM 70.0 °F 66.9 °F 90% 29.80 in 10.0 mi NNE 10.4 mph - 0.00 in Rain Light Rain
5:44 AM 69.8 °F 66.2 °F 88% 29.81 in 10.0 mi NE 12.7 mph - 0.00 in   Overcast
5:53 AM 70.0 °F 66.9 °F 90% 29.82 in 10.0 mi NE 11.5 mph - 0.00 in   Overcast
6:42 AM 69.8 °F 66.2 °F 88% 29.83 in 10.0 mi NNE 9.2 mph - N/A   Overcast
6:53 AM 70.0 °F 66.9 °F 90% 29.83 in 10.0 mi NE 10.4 mph - N/A   Overcast
7:03 AM 69.8 °F 66.2 °F 88% 29.84 in 10.0 mi NNE 8.1 mph - 0.00 in Rain Light Rain
7:53 AM 69.1 °F 66.0 °F 90% 29.85 in 7.0 mi NE 15.0 mph 19.6 mph 0.02 in Rain Light Rain
8:53 AM 68.0 °F 66.0 °F 93% 29.86 in 10.0 mi ENE 12.7 mph - 0.00 in   Overcast
9:53 AM 69.1 °F 66.0 °F 90% 29.87 in 10.0 mi NE 12.7 mph 18.4 mph N/A   Overcast
10:53 AM 70.0 °F 66.0 °F 87% 29.87 in 10.0 mi NNE 8.1 mph - N/A   Overcast
11:53 AM 71.1 °F 66.0 °F 84% 29.87 in 10.0 mi NE 8.1 mph - N/A   Overcast
12:33 PM 71.6 °F 66.2 °F 83% 29.87 in 10.0 mi ENE 8.1 mph - N/A   Overcast
12:53 PM 72.0 °F 66.0 °F 81% 29.87 in 10.0 mi NNE 10.4 mph - N/A   Overcast
1:53 PM 73.0 °F 66.0 °F 79% 29.85 in 10.0 mi NE 5.8 mph - N/A   Overcast
2:53 PM 75.0 °F 66.9 °F 76% 29.82 in 10.0 mi North 6.9 mph - N/A   Overcast
3:53 PM 73.9 °F 66.9 °F 79% 29.82 in 10.0 mi NNE 8.1 mph - N/A   Overcast
4:53 PM 73.0 °F 66.9 °F 81% 29.82 in 10.0 mi NNE 8.1 mph - N/A   Overcast
5:53 PM 73.0 °F 66.9 °F 81% 29.81 in 10.0 mi NE 6.9 mph - N/A   Overcast
6:53 PM 71.1 °F 66.0 °F 84% 29.81 in 10.0 mi NNE 9.2 mph - N/A   Overcast
7:30 PM 69.8 °F 66.2 °F 88% 29.82 in 10.0 mi NE 8.1 mph - N/A   Overcast
7:53 PM 70.0 °F 66.0 °F 87% 29.83 in 10.0 mi NE 9.2 mph - N/A   Overcast
8:53 PM 69.1 °F 66.0 °F 90% 29.83 in 8.0 mi North 6.9 mph - N/A   Overcast
9:30 PM 69.8 °F 66.2 °F 88% 29.85 in 7.0 mi NE 6.9 mph - N/A   Overcast
9:53 PM 69.1 °F 66.0 °F 90% 29.86 in 7.0 mi North 4.6 mph - N/A   Overcast
10:08 PM 69.8 °F 66.2 °F 88% 29.86 in 2.0 mi NNE 6.9 mph - N/A   Overcast
10:53 PM 68.0 °F 66.0 °F 93% 29.86 in 2.0 mi NE 3.5 mph - 0.00 in Rain Light Rain
11:53 PM 68.0 °F 66.0 °F 93% 29.84 in 2.0 mi ENE 4.6 mph - 0.00 in   Overcast